Погода в Николаевке

Россия / Алтайский край     53°13′11″N   78°43′18″E
темп.,
°C
ветер,
м/с
пор.,
м/с
влажн.,
%
обл.,
%
осадки,
мм/ч
давл.,
гПа
погр.,
м
31 июля, сб
сб3101:00+16ююз335020 0.0 101623
04:00+15ююз33525 0.0 101533
07:00+14ю46558 0.0 101585
10:00+21ю6840100 0.0 1015468
13:00+26ююз6629100 0.0 10131589
16:00+28юз5725100 0.0 10122919
19:00+26сз5736100 0.0 1011552
22:00+21ссз114785 0.0 101211
1 августа, вс
вс101:00+18юз11545 0.0 101111
04:00+17ю225466 0.0 101111
07:00+18ю33549 0.0 101166
10:00+24ю353955 0.0 1010576
13:00+28юз343555 0.0 10091295
16:00+29зсз44356 0.0 10081805
19:00+28сз44376 0.0 10081823
22:00+22ссз335390 0.0 100840
2 августа, пн
пн201:00+19с476742 0.0 1008102
04:00+18с2270100 0.0 100717
07:00+19сз116985 0.0 100711
10:00+25юз224977 0.0 1007335
13:00+29юз463721 0.0 10061986
16:00+31з573739 0.0 10052326
19:00+27ссз795059 0.2 10061002
22:00+22ссз22642 0.0 100721
3 августа, вт
вт301:00+20ссз336499 0.0 100738
04:00+18сз3378100 0.0 100845
07:00+19зсз377298 0.0 1008208
10:00+21сз5764100 0.0 1010550
13:00+25сз57482 0.0 10101658
16:00+25сз574085 0.0 10091967
19:00+25ссз6842100 0.0 10091400
22:00+22сз494898 0.0 1010294
4 августа, ср
ср401:00+18сз3560100 0.0 101079
04:00+17сз2267100 0.0 101014
07:00+17ссз226931 0.0 101037
10:00+21з455556 0.0 1011520
13:00+20зсз3562100 0.0 1011266
16:00+25сз344410 0.0 10101765
19:00+25сз464698 0.0 10101279
22:00+19с33710 0.0 101034